Time,TemperatureF,DewpointF,PressureIn,WindDirection,WindDirectionDegrees,WindSpeedMPH,WindSpeedGustMPH,Humidity,HourlyPrecipIn,Conditions,Clouds,dailyrainin,SoftwareType,DateUTC
2013-01-12 00:05:00,37.6,36.3,30.05,East,91,0.0,0.0,95,0.00,,,0.00,Wunderground v.1.15,2013-01-12 08:05:00,
2013-01-12 00:11:00,37.3,36.0,30.05,East,91,0.0,0.0,95,0.00,,,0.00,Wunderground v.1.15,2013-01-12 08:11:00,
2013-01-12 00:16:00,37.2,35.9,30.05,East,91,2.0,2.0,95,0.00,,,0.00,Wunderground v.1.15,2013-01-12 08:16:00,
2013-01-12 00:21:00,37.3,36.3,30.05,East,91,0.0,0.0,96,0.00,,,0.00,Wunderground v.1.15,2013-01-12 08:21:00,
2013-01-12 00:27:00,37.6,36.6,30.05,East,91,0.0,1.0,96,0.00,,,0.00,Wunderground v.1.15,2013-01-12 08:27:00,
2013-01-12 00:32:00,37.8,36.8,30.05,East,91,0.0,1.0,96,0.00,,,0.00,Wunderground v.1.15,2013-01-12 08:32:00,
2013-01-12 00:37:00,38.0,37.0,30.05,East,91,0.0,1.0,96,0.00,,,0.00,Wunderground v.1.15,2013-01-12 08:37:00,
2013-01-12 00:43:00,38.9,37.9,30.05,East,91,1.0,2.0,96,0.00,,,0.00,Wunderground v.1.15,2013-01-12 08:43:00,
2013-01-12 00:48:00,39.6,38.3,30.05,East,91,0.0,2.0,95,0.00,,,0.00,Wunderground v.1.15,2013-01-12 08:48:00,
2013-01-12 00:53:00,39.8,38.2,30.05,East,91,0.0,2.0,94,0.00,,,0.00,Wunderground v.1.15,2013-01-12 08:53:00,
2013-01-12 00:58:00,40.2,38.3,30.05,East,91,0.0,2.0,93,0.00,,,0.00,Wunderground v.1.15,2013-01-12 08:58:00,
2013-01-12 01:04:00,40.2,38.1,30.06,East,91,0.0,1.0,92,0.00,,,0.00,Wunderground v.1.15,2013-01-12 09:04:00,
2013-01-12 01:09:00,40.2,38.1,30.06,South,183,0.0,1.0,92,0.00,,,0.00,Wunderground v.1.15,2013-01-12 09:09:00,
2013-01-12 01:15:00,40.6,38.5,30.06,South,183,2.0,2.0,92,0.00,,,0.00,Wunderground v.1.15,2013-01-12 09:15:00,
2013-01-12 01:20:00,40.9,38.5,30.06,South,183,0.0,1.0,91,0.00,,,0.00,Wunderground v.1.15,2013-01-12 09:20:00,
2013-01-12 01:25:00,40.9,38.2,30.06,South,183,1.0,2.0,90,0.00,,,0.00,Wunderground v.1.15,2013-01-12 09:25:00,
2013-01-12 01:31:00,40.8,38.1,30.06,SSW,200,2.0,2.0,90,0.00,,,0.00,Wunderground v.1.15,2013-01-12 09:31:00,
2013-01-12 01:36:00,40.9,37.9,30.06,SSW,200,0.0,3.0,89,0.00,,,0.00,Wunderground v.1.15,2013-01-12 09:36:00,
2013-01-12 01:41:00,40.8,37.8,30.06,SSW,200,0.0,1.0,89,0.00,,,0.00,Wunderground v.1.15,2013-01-12 09:41:00,
2013-01-12 01:46:00,40.8,37.8,30.06,SSW,200,0.0,2.0,89,0.00,,,0.00,Wunderground v.1.15,2013-01-12 09:46:00,
2013-01-12 01:52:00,40.8,37.5,30.06,SSW,200,2.0,2.0,88,0.00,,,0.00,Wunderground v.1.15,2013-01-12 09:52:00,
2013-01-12 01:58:00,40.8,37.2,30.06,SSW,200,0.0,2.0,87,0.00,,,0.00,Wunderground v.1.15,2013-01-12 09:58:00,
2013-01-12 02:03:00,40.3,37.0,30.06,SSW,200,0.0,2.0,88,0.00,,,0.00,Wunderground v.1.15,2013-01-12 10:03:00,
2013-01-12 02:08:00,40.1,36.8,30.06,SSW,200,2.0,2.0,88,0.00,,,0.00,Wunderground v.1.15,2013-01-12 10:08:00,
2013-01-12 02:13:00,39.9,36.9,30.06,SSW,200,0.0,2.0,89,0.00,,,0.00,Wunderground v.1.15,2013-01-12 10:13:00,
2013-01-12 02:18:00,40.1,37.1,30.06,SSW,200,0.0,2.0,89,0.00,,,0.00,Wunderground v.1.15,2013-01-12 10:18:00,
2013-01-12 02:23:00,40.1,37.1,30.06,SSW,200,0.0,1.0,89,0.00,,,0.00,Wunderground v.1.15,2013-01-12 10:23:00,
2013-01-12 02:28:00,40.1,37.1,30.06,SSW,200,0.0,1.0,89,0.00,,,0.00,Wunderground v.1.15,2013-01-12 10:28:00,
2013-01-12 02:33:00,40.1,37.1,30.07,SW,235,0.0,3.0,89,0.00,,,0.00,Wunderground v.1.15,2013-01-12 10:33:00,
2013-01-12 02:38:00,40.2,37.2,30.07,WSW,240,0.0,3.0,89,0.00,,,0.00,Wunderground v.1.15,2013-01-12 10:38:00,
2013-01-12 02:43:00,40.1,37.1,30.07,WSW,240,0.0,0.0,89,0.00,,,0.00,Wunderground v.1.15,2013-01-12 10:43:00,
2013-01-12 02:48:00,40.3,37.3,30.07,WSW,240,0.0,1.0,89,0.00,,,0.00,Wunderground v.1.15,2013-01-12 10:48:00,
2013-01-12 02:53:00,40.5,37.2,30.07,WSW,240,0.0,0.0,88,0.00,,,0.00,Wunderground v.1.15,2013-01-12 10:53:00,
2013-01-12 02:58:00,41.1,37.5,30.07,WSW,240,0.0,1.0,87,0.00,,,0.00,Wunderground v.1.15,2013-01-12 10:58:00,
2013-01-12 03:03:00,41.6,37.7,30.06,WSW,240,0.0,0.0,86,0.00,,,0.00,Wunderground v.1.15,2013-01-12 11:03:00,
2013-01-12 03:08:00,41.8,37.6,30.06,ESE,115,0.0,3.0,85,0.00,,,0.00,Wunderground v.1.15,2013-01-12 11:08:00,
2013-01-12 03:13:00,41.5,37.3,30.06,ESE,115,0.0,1.0,85,0.00,,,0.00,Wunderground v.1.15,2013-01-12 11:13:00,
2013-01-12 03:18:00,41.1,36.9,30.07,ESE,115,0.0,1.0,85,0.00,,,0.00,Wunderground v.1.15,2013-01-12 11:18:00,
2013-01-12 03:23:00,40.8,36.9,30.07,SE,136,0.0,2.0,86,0.00,,,0.00,Wunderground v.1.15,2013-01-12 11:23:00,
2013-01-12 03:28:00,40.3,36.4,30.07,SE,136,0.0,2.0,86,0.00,,,0.00,Wunderground v.1.15,2013-01-12 11:28:00,
2013-01-12 03:33:00,40.1,36.5,30.07,SSE,147,0.0,1.0,87,0.00,,,0.00,Wunderground v.1.15,2013-01-12 11:33:00,
2013-01-12 03:38:00,40.2,36.6,30.07,SSE,147,0.0,1.0,87,0.00,,,0.00,Wunderground v.1.15,2013-01-12 11:38:00,
2013-01-12 03:43:00,40.2,36.6,30.07,SSE,148,0.0,1.0,87,0.00,,,0.00,Wunderground v.1.15,2013-01-12 11:43:00,
2013-01-12 03:48:00,40.3,36.7,30.07,SSE,159,0.0,2.0,87,0.00,,,0.00,Wunderground v.1.15,2013-01-12 11:48:00,
2013-01-12 03:53:00,40.5,36.6,30.07,SSE,159,0.0,1.0,86,0.00,,,0.00,Wunderground v.1.15,2013-01-12 11:53:00,
2013-01-12 03:58:00,40.3,36.4,30.07,SSE,159,0.0,1.0,86,0.00,,,0.00,Wunderground v.1.15,2013-01-12 11:58:00,
2013-01-12 04:03:00,40.2,36.3,30.07,SSE,159,0.0,1.0,86,0.00,,,0.00,Wunderground v.1.15,2013-01-12 12:03:00,
2013-01-12 04:08:00,40.2,36.3,30.07,SSE,159,0.0,1.0,86,0.00,,,0.00,Wunderground v.1.15,2013-01-12 12:08:00,
2013-01-12 04:13:00,40.2,36.3,30.07,WSW,252,4.0,4.0,86,0.00,,,0.00,Wunderground v.1.15,2013-01-12 12:13:00,
2013-01-12 04:18:00,40.8,36.6,30.07,WSW,252,0.0,4.0,85,0.00,,,0.00,Wunderground v.1.15,2013-01-12 12:18:00,
2013-01-12 04:23:00,40.8,36.3,30.07,WSW,252,0.0,1.0,84,0.00,,,0.00,Wunderground v.1.15,2013-01-12 12:23:00,
2013-01-12 04:28:00,40.5,36.0,30.07,WSW,252,0.0,1.0,84,0.00,,,0.00,Wunderground v.1.15,2013-01-12 12:28:00,
2013-01-12 04:33:00,40.1,36.0,30.07,WSW,252,0.0,0.0,85,0.00,,,0.00,Wunderground v.1.15,2013-01-12 12:33:00,
2013-01-12 04:38:00,39.6,35.5,30.07,WSW,252,0.0,1.0,85,0.00,,,0.00,Wunderground v.1.15,2013-01-12 12:38:00,
2013-01-12 04:43:00,39.6,35.8,30.08,WSW,252,0.0,1.0,86,0.00,,,0.00,Wunderground v.1.15,2013-01-12 12:43:00,
2013-01-12 04:48:00,39.3,35.5,30.08,WSW,252,0.0,1.0,86,0.00,,,0.00,Wunderground v.1.15,2013-01-12 12:48:00,
2013-01-12 04:53:00,39.3,35.8,30.08,WSW,252,0.0,2.0,87,0.00,,,0.00,Wunderground v.1.15,2013-01-12 12:53:00,
2013-01-12 04:58:00,39.1,35.6,30.08,WSW,246,0.0,2.0,87,0.00,,,0.00,Wunderground v.1.15,2013-01-12 12:58:00,
2013-01-12 05:03:00,38.6,35.4,30.08,WSW,246,1.0,1.0,88,0.00,,,0.00,Wunderground v.1.15,2013-01-12 13:03:00,
2013-01-12 05:08:00,38.5,35.3,30.08,WSW,246,0.0,1.0,88,0.00,,,0.00,Wunderground v.1.15,2013-01-12 13:08:00,
2013-01-12 05:13:00,38.2,35.2,30.08,WSW,246,0.0,1.0,89,0.00,,,0.00,Wunderground v.1.15,2013-01-12 13:13:00,
2013-01-12 05:18:00,38.3,35.3,30.08,WSW,246,0.0,1.0,89,0.00,,,0.00,Wunderground v.1.15,2013-01-12 13:18:00,
2013-01-12 05:23:00,38.6,35.6,30.08,WSW,246,0.0,2.0,89,0.00,,,0.00,Wunderground v.1.15,2013-01-12 13:23:00,
2013-01-12 05:28:00,38.8,35.8,30.09,WSW,246,2.0,2.0,89,0.00,,,0.00,Wunderground v.1.15,2013-01-12 13:28:00,
2013-01-12 05:33:00,39.2,35.9,30.09,WSW,246,0.0,3.0,88,0.00,,,0.00,Wunderground v.1.15,2013-01-12 13:33:00,
2013-01-12 05:38:00,38.9,35.6,30.09,WSW,246,0.0,3.0,88,0.00,,,0.00,Wunderground v.1.15,2013-01-12 13:38:00,
2013-01-12 05:43:00,38.8,35.6,30.10,WSW,246,1.0,2.0,88,0.00,,,0.00,Wunderground v.1.15,2013-01-12 13:43:00,
2013-01-12 05:48:00,38.6,35.4,30.10,WSW,246,0.0,2.0,88,0.00,,,0.00,Wunderground v.1.15,2013-01-12 13:48:00,
2013-01-12 05:53:00,38.3,35.3,30.10,WSW,246,0.0,1.0,89,0.00,,,0.00,Wunderground v.1.15,2013-01-12 13:53:00,
2013-01-12 05:58:00,38.0,35.0,30.10,WSW,246,0.0,1.0,89,0.00,,,0.00,Wunderground v.1.15,2013-01-12 13:58:00,
2013-01-12 06:03:00,37.8,34.8,30.10,WSW,246,0.0,1.0,89,0.00,,,0.00,Wunderground v.1.15,2013-01-12 14:03:00,
2013-01-12 06:08:00,37.6,34.9,30.10,WSW,246,0.0,2.0,90,0.00,,,0.00,Wunderground v.1.15,2013-01-12 14:08:00,
2013-01-12 06:13:00,37.5,35.1,30.10,WSW,246,0.0,2.0,91,0.00,,,0.00,Wunderground v.1.15,2013-01-12 14:13:00,
2013-01-12 06:18:00,37.6,35.5,30.10,WSW,246,0.0,2.0,92,0.00,,,0.00,Wunderground v.1.15,2013-01-12 14:18:00,
2013-01-12 06:23:00,37.6,35.2,30.10,WSW,246,0.0,0.0,91,0.00,,,0.00,Wunderground v.1.15,2013-01-12 14:23:00,
2013-01-12 06:28:00,37.3,34.9,30.11,WSW,246,0.0,1.0,91,0.00,,,0.00,Wunderground v.1.15,2013-01-12 14:28:00,
2013-01-12 06:34:00,37.0,34.9,30.11,WSW,246,0.0,0.0,92,0.00,,,0.00,Wunderground v.1.15,2013-01-12 14:34:00,
2013-01-12 06:39:00,36.8,34.7,30.11,WSW,246,0.0,0.0,92,0.00,,,0.00,Wunderground v.1.15,2013-01-12 14:39:00,
2013-01-12 06:44:00,36.3,34.2,30.12,WSW,246,0.0,1.0,92,0.00,,,0.00,Wunderground v.1.15,2013-01-12 14:44:00,
2013-01-12 06:49:00,36.2,34.4,30.12,WSW,246,0.0,2.0,93,0.00,,,0.00,Wunderground v.1.15,2013-01-12 14:49:00,
2013-01-12 06:54:00,35.9,34.1,30.12,WSW,246,0.0,1.0,93,0.00,,,0.00,Wunderground v.1.15,2013-01-12 14:54:00,
2013-01-12 06:59:00,36.0,34.4,30.13,WSW,246,1.0,2.0,94,0.00,,,0.00,Wunderground v.1.15,2013-01-12 14:59:00,
2013-01-12 07:04:00,36.0,34.4,30.13,WSW,246,0.0,1.0,94,0.00,,,0.00,Wunderground v.1.15,2013-01-12 15:04:00,
2013-01-12 07:09:00,36.0,34.4,30.13,WSW,246,0.0,2.0,94,0.00,,,0.00,Wunderground v.1.15,2013-01-12 15:09:00,
2013-01-12 07:14:00,35.8,34.2,30.13,WSW,246,0.0,1.0,94,0.00,,,0.00,Wunderground v.1.15,2013-01-12 15:14:00,
2013-01-12 07:19:00,35.6,34.0,30.13,WSW,246,0.0,1.0,94,0.00,,,0.00,Wunderground v.1.15,2013-01-12 15:19:00,
2013-01-12 07:24:00,35.6,34.3,30.13,WSW,246,0.0,0.0,95,0.00,,,0.00,Wunderground v.1.15,2013-01-12 15:24:00,
2013-01-12 07:29:00,35.5,34.2,30.14,WSW,246,1.0,2.0,95,0.00,,,0.00,Wunderground v.1.15,2013-01-12 15:29:00,
2013-01-12 07:34:00,35.8,34.5,30.14,WSW,246,0.0,1.0,95,0.00,,,0.00,Wunderground v.1.15,2013-01-12 15:34:00,
2013-01-12 07:39:00,35.6,34.3,30.14,WSW,246,0.0,1.0,95,0.00,,,0.00,Wunderground v.1.15,2013-01-12 15:39:00,
2013-01-12 07:44:00,35.3,34.0,30.15,WSW,246,0.0,0.0,95,0.00,,,0.00,Wunderground v.1.15,2013-01-12 15:44:00,
2013-01-12 07:49:00,35.5,34.5,30.15,WSW,246,0.0,1.0,96,0.00,,,0.00,Wunderground v.1.15,2013-01-12 15:49:00,
2013-01-12 07:54:00,35.8,34.8,30.15,WSW,246,0.0,0.0,96,0.00,,,0.00,Wunderground v.1.15,2013-01-12 15:54:00,
2013-01-12 07:59:00,36.2,35.2,30.15,WSW,246,0.0,0.0,96,0.00,,,0.00,Wunderground v.1.15,2013-01-12 15:59:00,
2013-01-12 08:04:00,36.9,35.9,30.15,WSW,246,0.0,0.0,96,0.00,,,0.00,Wunderground v.1.15,2013-01-12 16:04:00,
2013-01-12 08:09:00,37.6,36.6,30.15,WSW,246,0.0,0.0,96,0.00,,,0.00,Wunderground v.1.15,2013-01-12 16:09:00,
2013-01-12 08:14:00,38.6,37.6,30.16,WSW,246,0.0,0.0,96,0.00,,,0.00,Wunderground v.1.15,2013-01-12 16:14:00,
2013-01-12 08:19:00,39.2,37.9,30.16,WSW,246,0.0,0.0,95,0.00,,,0.00,Wunderground v.1.15,2013-01-12 16:19:00,
2013-01-12 08:24:00,40.1,38.8,30.16,WSW,246,0.0,0.0,95,0.00,,,0.00,Wunderground v.1.15,2013-01-12 16:24:00,
2013-01-12 08:29:00,40.5,38.6,30.16,South,186,0.0,1.0,93,0.00,,,0.00,Wunderground v.1.15,2013-01-12 16:29:00,
2013-01-12 08:34:00,40.8,38.4,30.16,South,186,0.0,0.0,91,0.00,,,0.00,Wunderground v.1.15,2013-01-12 16:34:00,
2013-01-12 08:39:00,41.1,38.4,30.16,South,186,0.0,0.0,90,0.00,,,0.00,Wunderground v.1.15,2013-01-12 16:39:00,
2013-01-12 08:44:00,41.1,38.4,30.16,South,186,0.0,0.0,90,0.00,,,0.00,Wunderground v.1.15,2013-01-12 16:44:00,
2013-01-12 08:49:00,40.9,37.9,30.16,South,186,0.0,0.0,89,0.00,,,0.00,Wunderground v.1.15,2013-01-12 16:49:00,
2013-01-12 08:54:00,41.3,38.3,30.16,South,186,0.0,0.0,89,0.00,,,0.00,Wunderground v.1.15,2013-01-12 16:54:00,
2013-01-12 08:59:00,41.6,38.6,30.16,South,186,0.0,0.0,89,0.00,,,0.00,Wunderground v.1.15,2013-01-12 16:59:00,
2013-01-12 09:04:00,41.9,38.0,30.16,South,186,0.0,0.0,86,0.00,,,0.00,Wunderground v.1.15,2013-01-12 17:04:00,
2013-01-12 09:09:00,42.5,37.4,30.16,South,186,0.0,0.0,82,0.00,,,0.00,Wunderground v.1.15,2013-01-12 17:09:00,
2013-01-12 09:14:00,42.8,36.7,30.16,South,186,0.0,0.0,79,0.00,,,0.00,Wunderground v.1.15,2013-01-12 17:14:00,
2013-01-12 09:19:00,43.2,36.1,30.16,South,186,0.0,0.0,76,0.00,,,0.00,Wunderground v.1.15,2013-01-12 17:19:00,
2013-01-12 09:24:00,44.1,37.0,30.16,South,172,1.0,2.0,76,0.00,,,0.00,Wunderground v.1.15,2013-01-12 17:24:00,
2013-01-12 09:29:00,44.6,36.8,30.16,South,172,0.0,2.0,74,0.00,,,0.00,Wunderground v.1.15,2013-01-12 17:29:00,
2013-01-12 09:34:00,45.2,36.7,30.16,South,172,0.0,1.0,72,0.00,,,0.00,Wunderground v.1.15,2013-01-12 17:34:00,
2013-01-12 09:39:00,45.8,36.6,30.16,South,172,0.0,1.0,70,0.00,,,0.00,Wunderground v.1.15,2013-01-12 17:39:00,
2013-01-12 09:44:00,46.2,36.6,30.16,South,172,0.0,0.0,69,0.00,,,0.00,Wunderground v.1.15,2013-01-12 17:44:00,
2013-01-12 09:49:00,46.8,37.2,30.16,South,172,0.0,0.0,69,0.00,,,0.00,Wunderground v.1.15,2013-01-12 17:49:00,
2013-01-12 09:54:00,47.6,37.9,30.16,ESE,117,3.0,3.0,69,0.00,,,0.00,Wunderground v.1.15,2013-01-12 17:54:00,
2013-01-12 09:59:00,48.2,37.0,30.15,NE,41,0.0,3.0,65,0.00,,,0.00,Wunderground v.1.15,2013-01-12 17:59:00,
2013-01-12 10:04:00,48.8,36.4,30.15,NE,34,0.0,3.0,62,0.00,,,0.00,Wunderground v.1.15,2013-01-12 18:04:00,
2013-01-12 10:09:00,49.2,36.3,30.15,NE,37,0.0,3.0,61,0.00,,,0.00,Wunderground v.1.15,2013-01-12 18:09:00,
2013-01-12 10:14:00,49.5,35.3,30.15,ESE,114,4.0,4.0,58,0.00,,,0.00,Wunderground v.1.15,2013-01-12 18:14:00,
2013-01-12 10:19:00,49.4,36.1,30.15,ESE,103,1.0,4.0,60,0.00,,,0.00,Wunderground v.1.15,2013-01-12 18:19:00,
2013-01-12 10:24:00,49.5,35.8,30.15,East,83,0.0,4.0,59,0.00,,,0.00,Wunderground v.1.15,2013-01-12 18:24:00,
2013-01-12 10:29:00,49.8,35.6,30.15,NNW,339,0.0,4.0,58,0.00,,,0.00,Wunderground v.1.15,2013-01-12 18:29:00,
2013-01-12 10:34:00,50.1,35.0,30.15,East,98,3.0,4.0,56,0.00,,,0.00,Wunderground v.1.15,2013-01-12 18:34:00,
2013-01-12 10:39:00,50.2,34.6,30.15,ESE,110,2.0,4.0,55,0.00,,,0.00,Wunderground v.1.15,2013-01-12 18:39:00,
2013-01-12 10:44:00,50.4,35.3,30.14,ESE,108,0.0,2.0,56,0.00,,,0.00,Wunderground v.1.15,2013-01-12 18:44:00,
2013-01-12 10:49:00,50.4,35.3,30.14,NE,39,2.0,2.0,56,0.00,,,0.00,Wunderground v.1.15,2013-01-12 18:49:00,
2013-01-12 10:54:00,50.1,36.7,30.14,SE,132,0.0,2.0,60,0.00,,,0.00,Wunderground v.1.15,2013-01-12 18:54:00,
2013-01-12 10:59:00,49.6,34.1,30.14,SE,126,1.0,2.0,55,0.00,,,0.00,Wunderground v.1.15,2013-01-12 18:59:00,
2013-01-12 11:04:00,49.5,36.2,30.14,East,90,0.0,3.0,60,0.00,,,0.00,Wunderground v.1.15,2013-01-12 19:04:00,
2013-01-12 11:09:00,49.4,35.7,30.14,ESE,109,1.0,3.0,59,0.00,,,0.00,Wunderground v.1.15,2013-01-12 19:09:00,
2013-01-12 11:14:00,49.4,35.7,30.13,SSE,159,0.0,4.0,59,0.00,,,0.00,Wunderground v.1.15,2013-01-12 19:14:00,
2013-01-12 11:19:00,49.6,36.3,30.13,SSW,212,0.0,4.0,60,0.00,,,0.00,Wunderground v.1.15,2013-01-12 19:19:00,
2013-01-12 11:25:00,50.1,35.9,30.13,SE,131,0.0,1.0,58,0.00,,,0.00,Wunderground v.1.15,2013-01-12 19:25:00,
2013-01-12 11:30:00,50.7,36.5,30.13,WSW,253,2.0,4.0,58,0.00,,,0.00,Wunderground v.1.15,2013-01-12 19:30:00,
2013-01-12 11:35:00,51.0,37.2,30.13,SW,233,0.0,5.0,59,0.00,,,0.00,Wunderground v.1.15,2013-01-12 19:35:00,
2013-01-12 11:40:00,51.0,35.4,30.13,NW,321,1.0,5.0,55,0.00,,,0.00,Wunderground v.1.15,2013-01-12 19:40:00,
2013-01-12 11:45:00,51.0,34.9,30.11,NW,320,0.0,2.0,54,0.00,,,0.00,Wunderground v.1.15,2013-01-12 19:45:00,
2013-01-12 11:50:00,51.0,35.8,30.11,West,280,1.0,5.0,56,0.00,,,0.00,Wunderground v.1.15,2013-01-12 19:50:00,
2013-01-12 11:55:00,50.8,34.7,30.11,WNW,300,1.0,4.0,54,0.00,,,0.00,Wunderground v.1.15,2013-01-12 19:55:00,
2013-01-12 12:00:00,50.7,35.1,30.11,WNW,295,0.0,5.0,55,0.00,,,0.00,Wunderground v.1.15,2013-01-12 20:00:00,
2013-01-12 12:05:00,51.0,35.8,30.11,WNW,295,2.0,2.0,56,0.00,,,0.00,Wunderground v.1.15,2013-01-12 20:05:00,
2013-01-12 12:10:00,51.3,35.7,30.11,West,278,2.0,2.0,55,0.00,,,0.00,Wunderground v.1.15,2013-01-12 20:10:00,
2013-01-12 12:15:00,51.6,35.5,30.10,West,259,2.0,3.0,54,0.00,,,0.00,Wunderground v.1.15,2013-01-12 20:15:00,
2013-01-12 12:20:00,51.7,36.9,30.10,NNW,332,0.0,1.0,57,0.00,,,0.00,Wunderground v.1.15,2013-01-12 20:20:00,
2013-01-12 12:25:00,51.7,36.0,30.10,SW,214,2.0,5.0,55,0.00,,,0.00,Wunderground v.1.15,2013-01-12 20:25:00,
2013-01-12 12:30:00,51.7,36.5,30.10,North,1,2.0,4.0,56,0.00,,,0.00,Wunderground v.1.15,2013-01-12 20:30:00,
2013-01-12 12:35:00,51.6,36.9,30.10,WSW,238,1.0,4.0,57,0.00,,,0.00,Wunderground v.1.15,2013-01-12 20:35:00,
2013-01-12 12:40:00,51.7,36.9,30.10,ENE,75,0.0,1.0,57,0.00,,,0.00,Wunderground v.1.15,2013-01-12 20:40:00,
2013-01-12 12:45:00,51.7,36.9,30.09,West,266,0.0,4.0,57,0.00,,,0.00,Wunderground v.1.15,2013-01-12 20:45:00,
2013-01-12 12:50:00,51.9,38.0,30.09,North,9,3.0,3.0,59,0.00,,,0.00,Wunderground v.1.15,2013-01-12 20:50:00,
2013-01-12 12:55:00,51.7,37.8,30.09,WSW,247,0.0,4.0,59,0.00,,,0.00,Wunderground v.1.15,2013-01-12 20:55:00,
2013-01-12 13:00:00,51.7,37.4,30.09,NE,38,0.0,1.0,58,0.00,,,0.00,Wunderground v.1.15,2013-01-12 21:00:00,
2013-01-12 13:05:00,51.7,37.8,30.09,NW,316,1.0,4.0,59,0.00,,,0.00,Wunderground v.1.15,2013-01-12 21:05:00,
2013-01-12 13:10:00,51.6,37.7,30.09,NE,44,4.0,4.0,59,0.00,,,0.00,Wunderground v.1.15,2013-01-12 21:10:00,
2013-01-12 13:15:00,51.1,36.8,30.08,SE,141,5.0,7.0,58,0.00,,,0.00,Wunderground v.1.15,2013-01-12 21:15:00,
2013-01-12 13:20:00,50.7,37.7,30.08,NNE,28,1.0,2.0,61,0.00,,,0.00,Wunderground v.1.15,2013-01-12 21:20:00,
2013-01-12 13:25:00,50.4,37.0,30.08,NNE,17,1.0,6.0,60,0.00,,,0.00,Wunderground v.1.15,2013-01-12 21:25:00,
2013-01-12 13:31:00,50.4,37.9,30.08,North,352,5.0,5.0,62,0.00,,,0.00,Wunderground v.1.15,2013-01-12 21:31:00,
2013-01-12 13:36:00,50.2,38.5,30.08,East,89,0.0,6.0,64,0.00,,,0.00,Wunderground v.1.15,2013-01-12 21:36:00,
2013-01-12 13:41:00,50.2,38.1,30.08,North,0,2.0,4.0,63,0.00,,,0.00,Wunderground v.1.15,2013-01-12 21:41:00,
2013-01-12 13:46:00,50.2,38.9,30.08,NE,44,0.0,4.0,65,0.00,,,0.00,Wunderground v.1.15,2013-01-12 21:46:00,
2013-01-12 13:51:00,50.4,39.1,30.08,North,354,4.0,5.0,65,0.00,,,0.00,Wunderground v.1.15,2013-01-12 21:51:00,
2013-01-12 13:56:00,50.1,38.8,30.08,SE,133,2.0,5.0,65,0.00,,,0.00,Wunderground v.1.15,2013-01-12 21:56:00,
2013-01-12 14:01:00,50.1,39.6,30.08,NNE,25,0.0,2.0,67,0.00,,,0.00,Wunderground v.1.15,2013-01-12 22:01:00,
2013-01-12 14:06:00,50.2,36.8,30.08,North,4,2.0,5.0,60,0.00,,,0.00,Wunderground v.1.15,2013-01-12 22:06:00,
2013-01-12 14:11:00,50.2,35.1,30.08,North,6,3.0,3.0,56,0.00,,,0.00,Wunderground v.1.15,2013-01-12 22:11:00,
2013-01-12 14:16:00,50.2,36.0,30.08,West,268,2.0,6.0,58,0.00,,,0.00,Wunderground v.1.15,2013-01-12 22:16:00,
2013-01-12 14:21:00,50.2,35.5,30.08,North,4,0.0,4.0,57,0.00,,,0.00,Wunderground v.1.15,2013-01-12 22:21:00,
2013-01-12 14:26:00,50.1,35.0,30.08,SW,219,2.0,4.0,56,0.00,,,0.00,Wunderground v.1.15,2013-01-12 22:26:00,
2013-01-12 14:31:00,49.8,35.2,30.08,North,351,1.0,2.0,57,0.00,,,0.00,Wunderground v.1.15,2013-01-12 22:31:00,
2013-01-12 14:36:00,49.5,35.8,30.08,South,185,0.0,4.0,59,0.00,,,0.00,Wunderground v.1.15,2013-01-12 22:36:00,
2013-01-12 14:41:00,49.2,36.3,30.08,SE,134,2.0,2.0,61,0.00,,,0.00,Wunderground v.1.15,2013-01-12 22:41:00,
2013-01-12 14:46:00,49.2,36.3,30.07,WSW,248,1.0,5.0,61,0.00,,,0.00,Wunderground v.1.15,2013-01-12 22:46:00,
2013-01-12 14:51:00,49.1,37.4,30.07,NE,52,0.0,1.0,64,0.00,,,0.00,Wunderground v.1.15,2013-01-12 22:51:00,
2013-01-12 14:56:00,48.9,36.9,30.07,NE,52,0.0,2.0,63,0.00,,,0.00,Wunderground v.1.15,2013-01-12 22:56:00,
2013-01-12 15:01:00,48.9,37.3,30.07,SSE,152,0.0,2.0,64,0.00,,,0.00,Wunderground v.1.15,2013-01-12 23:01:00,
2013-01-12 15:06:00,48.8,36.4,30.07,ENE,75,3.0,5.0,62,0.00,,,0.00,Wunderground v.1.15,2013-01-12 23:06:00,
2013-01-12 15:11:00,48.9,35.6,30.07,WNW,285,0.0,1.0,60,0.00,,,0.00,Wunderground v.1.15,2013-01-12 23:11:00,
2013-01-12 15:16:00,48.9,36.0,30.07,NW,309,0.0,4.0,61,0.00,,,0.00,Wunderground v.1.15,2013-01-12 23:16:00,
2013-01-12 15:21:00,48.9,35.2,30.07,NNW,344,0.0,2.0,59,0.00,,,0.00,Wunderground v.1.15,2013-01-12 23:21:00,
2013-01-12 15:26:00,48.8,36.4,30.07,NNW,344,0.0,2.0,62,0.00,,,0.00,Wunderground v.1.15,2013-01-12 23:26:00,
2013-01-12 15:31:00,48.5,36.1,30.07,WSW,238,0.0,1.0,62,0.00,,,0.00,Wunderground v.1.15,2013-01-12 23:31:00,
2013-01-12 15:36:00,48.3,35.9,30.07,East,100,0.0,5.0,62,0.00,,,0.00,Wunderground v.1.15,2013-01-12 23:36:00,
2013-01-12 15:41:00,48.3,35.9,30.07,NNE,18,3.0,3.0,62,0.00,,,0.00,Wunderground v.1.15,2013-01-12 23:41:00,
2013-01-12 15:46:00,48.2,36.2,30.07,SE,130,0.0,4.0,63,0.00,,,0.00,Wunderground v.1.15,2013-01-12 23:46:00,
2013-01-12 15:51:00,47.9,36.3,30.07,ESE,105,0.0,3.0,64,0.00,,,0.00,Wunderground v.1.15,2013-01-12 23:51:00,
2013-01-12 15:56:00,47.7,36.1,30.07,NNE,29,1.0,3.0,64,0.00,,,0.00,Wunderground v.1.15,2013-01-12 23:56:00,
2013-01-12 16:01:00,47.7,36.5,30.07,WNW,288,0.0,2.0,65,0.00,,,0.00,Wunderground v.1.15,2013-01-13 00:01:00,
2013-01-12 16:06:00,47.6,36.4,30.07,WNW,290,0.0,4.0,65,0.00,,,0.00,Wunderground v.1.15,2013-01-13 00:06:00,
2013-01-12 16:11:00,47.4,36.2,30.07,ENE,70,0.0,2.0,65,0.00,,,0.00,Wunderground v.1.15,2013-01-13 00:11:00,
2013-01-12 16:16:00,47.3,36.5,30.07,ENE,70,0.0,2.0,66,0.00,,,0.00,Wunderground v.1.15,2013-01-13 00:16:00,
2013-01-12 16:21:00,47.1,36.3,30.07,SSE,149,1.0,2.0,66,0.00,,,0.00,Wunderground v.1.15,2013-01-13 00:21:00,
2013-01-12 16:26:00,46.8,36.4,30.07,North,358,0.0,3.0,67,0.00,,,0.00,Wunderground v.1.15,2013-01-13 00:26:00,
2013-01-12 16:31:00,46.7,36.7,30.07,SE,127,0.0,0.0,68,0.00,,,0.00,Wunderground v.1.15,2013-01-13 00:31:00,
2013-01-12 16:36:00,46.4,36.4,30.07,SSW,198,0.0,2.0,68,0.00,,,0.00,Wunderground v.1.15,2013-01-13 00:36:00,
2013-01-12 16:41:00,46.0,36.4,30.07,SSW,198,0.0,1.0,69,0.00,,,0.00,Wunderground v.1.15,2013-01-13 00:41:00,
2013-01-12 16:46:00,45.7,36.1,30.07,SSW,204,0.0,2.0,69,0.00,,,0.00,Wunderground v.1.15,2013-01-13 00:46:00,
2013-01-12 16:51:00,45.4,36.2,30.07,SSW,205,0.0,0.0,70,0.00,,,0.00,Wunderground v.1.15,2013-01-13 00:51:00,
2013-01-12 16:56:00,45.1,36.3,30.07,SSW,205,0.0,0.0,71,0.00,,,0.00,Wunderground v.1.15,2013-01-13 00:56:00,
2013-01-12 17:01:00,44.8,36.0,30.07,WNW,290,1.0,1.0,71,0.00,,,0.00,Wunderground v.1.15,2013-01-13 01:01:00,
2013-01-12 17:07:00,44.5,36.0,30.07,WNW,290,0.0,1.0,72,0.00,,,0.00,Wunderground v.1.15,2013-01-13 01:07:00,
2013-01-12 17:12:00,44.2,36.1,30.07,WNW,290,0.0,1.0,73,0.00,,,0.00,Wunderground v.1.15,2013-01-13 01:12:00,
2013-01-12 17:17:00,43.9,36.1,30.06,WNW,290,0.0,1.0,74,0.00,,,0.00,Wunderground v.1.15,2013-01-13 01:17:00,
2013-01-12 17:22:00,43.8,36.0,30.06,WNW,290,0.0,0.0,74,0.00,,,0.00,Wunderground v.1.15,2013-01-13 01:22:00,
2013-01-12 17:27:00,43.6,36.2,30.06,WNW,290,0.0,1.0,75,0.00,,,0.00,Wunderground v.1.15,2013-01-13 01:27:00,
2013-01-12 17:32:00,43.3,35.9,30.07,WNW,290,0.0,0.0,75,0.00,,,0.00,Wunderground v.1.15,2013-01-13 01:32:00,
2013-01-12 17:37:00,43.2,35.8,30.07,WNW,290,0.0,1.0,75,0.00,,,0.00,Wunderground v.1.15,2013-01-13 01:37:00,
2013-01-12 17:42:00,43.2,35.8,30.07,WNW,290,0.0,1.0,75,0.00,,,0.00,Wunderground v.1.15,2013-01-13 01:42:00,
2013-01-12 17:47:00,43.1,36.0,30.07,WNW,290,0.0,1.0,76,0.00,,,0.00,Wunderground v.1.15,2013-01-13 01:47:00,
2013-01-12 17:52:00,42.9,35.9,30.07,WNW,290,2.0,2.0,76,0.00,,,0.00,Wunderground v.1.15,2013-01-13 01:52:00,
2013-01-12 17:57:00,42.8,35.8,30.07,WNW,290,0.0,2.0,76,0.00,,,0.00,Wunderground v.1.15,2013-01-13 01:57:00,
2013-01-12 18:02:00,42.6,35.6,30.07,WNW,290,2.0,2.0,76,0.00,,,0.00,Wunderground v.1.15,2013-01-13 02:02:00,
2013-01-12 18:07:00,42.5,35.5,30.07,WNW,290,1.0,2.0,76,0.00,,,0.00,Wunderground v.1.15,2013-01-13 02:07:00,
2013-01-12 18:12:00,42.3,35.3,30.07,WNW,290,1.0,2.0,76,0.00,,,0.00,Wunderground v.1.15,2013-01-13 02:12:00,
2013-01-12 18:17:00,42.2,35.2,30.06,WNW,290,0.0,2.0,76,0.00,,,0.00,Wunderground v.1.15,2013-01-13 02:17:00,
2013-01-12 18:22:00,42.1,35.4,30.06,WNW,290,0.0,0.0,77,0.00,,,0.00,Wunderground v.1.15,2013-01-13 02:22:00,
2013-01-12 18:27:00,41.8,35.1,30.06,WNW,290,0.0,0.0,77,0.00,,,0.00,Wunderground v.1.15,2013-01-13 02:27:00,
2013-01-12 18:32:00,41.8,35.1,30.06,WNW,290,0.0,1.0,77,0.00,,,0.00,Wunderground v.1.15,2013-01-13 02:32:00,
2013-01-12 18:37:00,41.6,35.2,30.06,WNW,290,0.0,1.0,78,0.00,,,0.00,Wunderground v.1.15,2013-01-13 02:37:00,
2013-01-12 18:42:00,41.3,35.0,30.06,WNW,290,0.0,0.0,78,0.00,,,0.00,Wunderground v.1.15,2013-01-13 02:42:00,
2013-01-12 18:47:00,41.1,35.1,30.07,WNW,290,0.0,0.0,79,0.00,,,0.00,Wunderground v.1.15,2013-01-13 02:47:00,
2013-01-12 18:52:00,40.8,34.8,30.07,WNW,290,0.0,0.0,79,0.00,,,0.00,Wunderground v.1.15,2013-01-13 02:52:00,
2013-01-12 18:57:00,40.5,34.5,30.07,WNW,290,0.0,0.0,79,0.00,,,0.00,Wunderground v.1.15,2013-01-13 02:57:00,
2013-01-12 19:02:00,40.2,34.5,30.07,WNW,290,0.0,0.0,80,0.00,,,0.00,Wunderground v.1.15,2013-01-13 03:02:00,
2013-01-12 19:07:00,39.9,34.2,30.07,WNW,290,0.0,0.0,80,0.00,,,0.00,Wunderground v.1.15,2013-01-13 03:07:00,
2013-01-12 19:12:00,39.5,34.2,30.07,WNW,290,0.0,0.0,81,0.00,,,0.00,Wunderground v.1.15,2013-01-13 03:12:00,
2013-01-12 19:17:00,39.1,34.1,30.07,WNW,290,0.0,1.0,82,0.00,,,0.00,Wunderground v.1.15,2013-01-13 03:17:00,
2013-01-12 19:22:00,38.9,33.9,30.07,WNW,290,0.0,0.0,82,0.00,,,0.00,Wunderground v.1.15,2013-01-13 03:22:00,
2013-01-12 19:27:00,38.8,34.1,30.07,WNW,290,0.0,0.0,83,0.00,,,0.00,Wunderground v.1.15,2013-01-13 03:27:00,
2013-01-12 19:32:00,38.5,34.1,30.07,WNW,290,0.0,0.0,84,0.00,,,0.00,Wunderground v.1.15,2013-01-13 03:32:00,
2013-01-12 19:37:00,38.3,34.2,30.07,WNW,290,0.0,0.0,85,0.00,,,0.00,Wunderground v.1.15,2013-01-13 03:37:00,
2013-01-12 19:42:00,38.2,34.4,30.07,WNW,290,0.0,0.0,86,0.00,,,0.00,Wunderground v.1.15,2013-01-13 03:42:00,
2013-01-12 19:47:00,37.9,34.1,30.06,WNW,290,0.0,0.0,86,0.00,,,0.00,Wunderground v.1.15,2013-01-13 03:47:00,
2013-01-12 19:52:00,37.6,33.8,30.06,WNW,290,0.0,0.0,86,0.00,,,0.00,Wunderground v.1.15,2013-01-13 03:52:00,
2013-01-12 19:57:00,37.3,33.8,30.06,WNW,290,0.0,0.0,87,0.00,,,0.00,Wunderground v.1.15,2013-01-13 03:57:00,
2013-01-12 20:02:00,37.0,33.5,30.06,WNW,290,0.0,0.0,87,0.00,,,0.00,Wunderground v.1.15,2013-01-13 04:02:00,
2013-01-12 20:07:00,36.6,33.4,30.06,WNW,290,0.0,0.0,88,0.00,,,0.00,Wunderground v.1.15,2013-01-13 04:07:00,
2013-01-12 20:12:00,36.3,33.4,30.06,WNW,290,0.0,1.0,89,0.00,,,0.00,Wunderground v.1.15,2013-01-13 04:12:00,
2013-01-12 20:17:00,36.2,33.3,30.06,WNW,290,0.0,1.0,89,0.00,,,0.00,Wunderground v.1.15,2013-01-13 04:17:00,
2013-01-12 20:22:00,36.0,33.1,30.06,WNW,290,0.0,0.0,89,0.00,,,0.00,Wunderground v.1.15,2013-01-13 04:22:00,
2013-01-12 20:27:00,35.9,33.3,30.06,WNW,290,0.0,0.0,90,0.00,,,0.00,Wunderground v.1.15,2013-01-13 04:27:00,
2013-01-12 20:32:00,35.9,33.5,30.07,WNW,290,0.0,0.0,91,0.00,,,0.00,Wunderground v.1.15,2013-01-13 04:32:00,
2013-01-12 20:37:00,35.8,33.4,30.07,WNW,290,0.0,0.0,91,0.00,,,0.00,Wunderground v.1.15,2013-01-13 04:37:00,
2013-01-12 20:43:00,35.8,33.7,30.07,WNW,290,0.0,0.0,92,0.00,,,0.00,Wunderground v.1.15,2013-01-13 04:43:00,
2013-01-12 20:48:00,36.0,33.9,30.07,WNW,290,0.0,0.0,92,0.00,,,0.00,Wunderground v.1.15,2013-01-13 04:48:00,
2013-01-12 20:53:00,36.0,33.6,30.07,WNW,290,0.0,0.0,91,0.00,,,0.00,Wunderground v.1.15,2013-01-13 04:53:00,
2013-01-12 20:58:00,36.3,33.9,30.07,WNW,290,0.0,1.0,91,0.00,,,0.00,Wunderground v.1.15,2013-01-13 04:58:00,
2013-01-12 21:00:00,36.3,33.6,30.06,WNW,290,0.0,0.0,90,0.00,,,0.00,Wunderground v.1.15,2013-01-13 05:00:00,
2013-01-12 21:01:00,36.5,33.8,30.06,WNW,290,0.0,0.0,90,0.00,,,0.00,Wunderground v.1.15,2013-01-13 05:01:00,
2013-01-12 21:03:00,36.6,33.9,30.06,WNW,290,0.0,0.0,90,0.00,,,0.00,Wunderground v.1.15,2013-01-13 05:03:00,
2013-01-12 21:05:00,36.8,33.9,30.06,WNW,290,0.0,0.0,89,0.00,,,0.00,Wunderground v.1.15,2013-01-13 05:05:00,
2013-01-12 21:10:00,37.0,34.1,30.06,WNW,290,0.0,0.0,89,0.00,,,0.00,Wunderground v.1.15,2013-01-13 05:10:00,
2013-01-12 21:15:00,37.2,33.7,30.06,WNW,290,0.0,0.0,87,0.00,,,0.00,Wunderground v.1.15,2013-01-13 05:15:00,
2013-01-12 21:20:00,37.6,33.8,30.06,WNW,290,0.0,0.0,86,0.00,,,0.00,Wunderground v.1.15,2013-01-13 05:20:00,
2013-01-12 21:25:00,37.9,33.5,30.06,WNW,290,0.0,0.0,84,0.00,,,0.00,Wunderground v.1.15,2013-01-13 05:25:00,
2013-01-12 21:30:00,38.3,33.6,30.07,WNW,290,0.0,0.0,83,0.00,,,0.00,Wunderground v.1.15,2013-01-13 05:30:00,
2013-01-12 21:35:00,38.6,33.3,30.07,WNW,290,0.0,0.0,81,0.00,,,0.00,Wunderground v.1.15,2013-01-13 05:35:00,
2013-01-12 21:40:00,39.1,33.5,30.07,WNW,290,0.0,0.0,80,0.00,,,0.00,Wunderground v.1.15,2013-01-13 05:40:00,
2013-01-12 21:45:00,39.3,33.0,30.06,WNW,290,1.0,1.0,78,0.00,,,0.00,Wunderground v.1.15,2013-01-13 05:45:00,
2013-01-12 21:50:00,39.8,32.8,30.06,WNW,290,0.0,0.0,76,0.00,,,0.00,Wunderground v.1.15,2013-01-13 05:50:00,
2013-01-12 21:55:00,39.9,32.6,30.06,WNW,290,0.0,0.0,75,0.00,,,0.00,Wunderground v.1.15,2013-01-13 05:55:00,
2013-01-12 22:00:00,40.1,32.8,30.06,WNW,290,0.0,0.0,75,0.00,,,0.00,Wunderground v.1.15,2013-01-13 06:00:00,
2013-01-12 22:05:00,40.1,32.5,30.06,WNW,290,0.0,0.0,74,0.00,,,0.00,Wunderground v.1.15,2013-01-13 06:05:00,
2013-01-12 22:10:00,40.2,32.6,30.06,WNW,290,0.0,0.0,74,0.00,,,0.00,Wunderground v.1.15,2013-01-13 06:10:00,
2013-01-12 22:15:00,40.3,32.0,30.05,WNW,290,0.0,0.0,72,0.00,,,0.00,Wunderground v.1.15,2013-01-13 06:15:00,
2013-01-12 22:20:00,40.5,32.2,30.05,WNW,290,0.0,0.0,72,0.00,,,0.00,Wunderground v.1.15,2013-01-13 06:20:00,
2013-01-12 22:25:00,40.8,32.5,30.05,WNW,290,0.0,0.0,72,0.00,,,0.00,Wunderground v.1.15,2013-01-13 06:25:00,
2013-01-12 22:30:00,40.9,32.6,30.07,WNW,290,0.0,0.0,72,0.00,,,0.00,Wunderground v.1.15,2013-01-13 06:30:00,
2013-01-12 22:35:00,40.9,32.2,30.07,WNW,290,0.0,0.0,71,0.00,,,0.00,Wunderground v.1.15,2013-01-13 06:35:00,
2013-01-12 22:40:00,41.1,32.1,30.07,WNW,290,0.0,0.0,70,0.00,,,0.00,Wunderground v.1.15,2013-01-13 06:40:00,
2013-01-12 22:45:00,41.1,32.4,30.07,WNW,290,0.0,0.0,71,0.00,,,0.00,Wunderground v.1.15,2013-01-13 06:45:00,
2013-01-12 22:50:00,41.2,32.5,30.07,WNW,290,0.0,0.0,71,0.00,,,0.00,Wunderground v.1.15,2013-01-13 06:50:00,
2013-01-12 22:55:00,41.2,31.8,30.07,WNW,290,0.0,0.0,69,0.00,,,0.00,Wunderground v.1.15,2013-01-13 06:55:00,
2013-01-12 23:00:00,41.6,32.2,30.07,WNW,290,0.0,0.0,69,0.00,,,0.00,Wunderground v.1.15,2013-01-13 07:00:00,
2013-01-12 23:05:00,41.9,31.0,30.07,WNW,290,0.0,0.0,65,0.00,,,0.00,Wunderground v.1.15,2013-01-13 07:05:00,
2013-01-12 23:10:00,42.2,31.3,30.07,WNW,290,0.0,0.0,65,0.00,,,0.00,Wunderground v.1.15,2013-01-13 07:10:00,
2013-01-12 23:15:00,42.1,30.8,30.07,WNW,290,0.0,0.0,64,0.00,,,0.00,Wunderground v.1.15,2013-01-13 07:15:00,
2013-01-12 23:21:00,41.9,31.0,30.07,WNW,290,0.0,0.0,65,0.00,,,0.00,Wunderground v.1.15,2013-01-13 07:21:00,
2013-01-12 23:26:00,41.8,30.9,30.07,WNW,290,0.0,0.0,65,0.00,,,0.00,Wunderground v.1.15,2013-01-13 07:26:00,
2013-01-12 23:31:00,41.5,31.0,30.07,WNW,290,0.0,0.0,66,0.00,,,0.00,Wunderground v.1.15,2013-01-13 07:31:00,
2013-01-12 23:36:00,41.2,30.3,30.07,WNW,290,0.0,0.0,65,0.00,,,0.00,Wunderground v.1.15,2013-01-13 07:36:00,
2013-01-12 23:41:00,40.9,30.4,30.07,WNW,290,0.0,0.0,66,0.00,,,0.00,Wunderground v.1.15,2013-01-13 07:41:00,
2013-01-12 23:46:00,40.6,29.7,30.07,WNW,290,0.0,0.0,65,0.00,,,0.00,Wunderground v.1.15,2013-01-13 07:46:00,
2013-01-12 23:51:00,40.3,30.2,30.07,WNW,290,0.0,0.0,67,0.00,,,0.00,Wunderground v.1.15,2013-01-13 07:51:00,
2013-01-12 23:56:00,39.9,30.2,30.07,WNW,290,0.0,0.0,68,0.00,,,0.00,Wunderground v.1.15,2013-01-13 07:56:00,